TimeCST,TemperatureF,Dew PointF,Humidity,Sea Level PressureIn,VisibilityMPH,Wind Direction,Wind SpeedMPH,Gust SpeedMPH,PrecipitationIn,Events,Conditions,WindDirDegrees,DateUTC
12:53 AM,37.9,28.0,68,30.22,10.0,NNW,9.2,-,N/A,,Clear,340,2013-01-17 06:53:00
1:53 AM,36.0,28.9,76,30.25,10.0,NNW,8.1,-,N/A,,Clear,340,2013-01-17 07:53:00
2:53 AM,35.1,28.9,78,30.28,10.0,NNW,9.2,-,N/A,,Clear,330,2013-01-17 08:53:00
3:53 AM,34.0,28.0,79,30.30,10.0,NNW,9.2,-,N/A,,Clear,340,2013-01-17 09:53:00
4:53 AM,32.0,27.0,82,30.33,10.0,NNW,8.1,-,N/A,,Clear,340,2013-01-17 10:53:00
5:53 AM,30.9,27.0,85,30.36,10.0,NNW,11.5,-,N/A,,Clear,340,2013-01-17 11:53:00
6:53 AM,28.9,26.1,89,30.39,10.0,NNW,9.2,-,N/A,,Clear,340,2013-01-17 12:53:00
7:53 AM,28.9,26.1,89,30.42,10.0,North,9.2,-,N/A,,Clear,350,2013-01-17 13:53:00
8:53 AM,30.9,26.1,82,30.44,10.0,North,11.5,-,N/A,,Clear,350,2013-01-17 14:53:00
9:53 AM,34.0,26.1,73,30.48,10.0,North,8.1,-,N/A,,Clear,350,2013-01-17 15:53:00
11:53 AM,39.0,21.9,50,30.48,10.0,North,6.9,-,N/A,,Clear,350,2013-01-17 17:53:00
12:53 PM,43.0,21.9,43,30.45,10.0,North,8.1,-,N/A,,Clear,350,2013-01-17 18:53:00
1:53 PM,45.0,21.0,39,30.43,10.0,Variable,5.8,-,N/A,,Clear,0,2013-01-17 19:53:00
2:53 PM,46.0,21.0,37,30.43,10.0,NNW,5.8,-,N/A,,Clear,330,2013-01-17 20:53:00
3:53 PM,46.0,21.9,39,30.44,10.0,North,3.5,-,N/A,,Clear,10,2013-01-17 21:53:00
4:53 PM,44.1,21.9,42,30.45,10.0,Calm,Calm,-,N/A,,Clear,0,2013-01-17 22:53:00
5:53 PM,43.0,21.9,43,30.45,10.0,Calm,Calm,-,N/A,,Clear,0,2013-01-17 23:53:00
6:53 PM,39.9,23.0,51,30.46,10.0,SE,5.8,-,N/A,,Clear,140,2013-01-18 00:53:00
7:53 PM,37.0,23.0,57,30.46,10.0,SSE,5.8,-,N/A,,Clear,150,2013-01-18 01:53:00
8:53 PM,36.0,23.0,59,30.46,10.0,SSE,6.9,-,N/A,,Clear,160,2013-01-18 02:53:00
9:53 PM,35.1,24.1,64,30.45,10.0,South,6.9,-,N/A,,Clear,170,2013-01-18 03:53:00
10:53 PM,35.1,24.1,64,30.44,10.0,South,9.2,-,N/A,,Clear,170,2013-01-18 04:53:00
11:53 PM,34.0,25.0,70,30.43,10.0,South,11.5,-,N/A,,Clear,180,2013-01-18 05:53:00